^^
Garrymore Weather Station Historical Data
Daily Summary for September 25, 2020 Units:  Metric    English   Both
Daily Weekly Monthly Yearly Custom
  High: Low: Average:
Temperature: 4 °C 4 °C 4 °C
Dew Point: 3 °C 2 °C 2.5 °C
Humidity: 92% 84% 90%
Wind Speed: 10km/h 2km/h 5.4km/h
Wind Gust: 16km/h - -
Wind- - WNW
Pressure: 1012.5 hPa 1007.99 hPa -
Precipitation: 0 mm    
Historical Graphs
 
 
Tabular Data for September 25, 2020
Time Temperature Dew Point Pressure Wind Wind Speed Wind Gust Humidity Rainfall Rate (Hourly) solar
00:00 4 °C 2 °C 1007.99 hPa NW 5 km/h 10 km/h 84% 0 mm 0 W/m2
00:05 4 °C 2 °C 1007.99 hPa NW 5 km/h 10 km/h 84% 0 mm 0 W/m2
00:10 4 °C 2 °C 1008.4 hPa WNW 5 km/h 10 km/h 85% 0 mm 0 W/m2
00:15 4 °C 2 °C 1008.3 hPa NW 5 km/h 10 km/h 85% 0 mm 0 W/m2
00:20 4 °C 2 °C 1008.23 hPa NW 5 km/h 10 km/h 85% 0 mm 0 W/m2
00:25 4 °C 2 °C 1008.6 hPa WNW 5 km/h 10 km/h 85% 0 mm 0 W/m2
00:30 4 °C 2 °C 1008.5 hPa W 3 km/h 10 km/h 85% 0 mm 0 W/m2
00:35 4 °C 2 °C 1008.43 hPa W 5 km/h 13 km/h 85% 0 mm 0 W/m2
00:40 4 °C 2 °C 1008.64 hPa WNW 5 km/h 13 km/h 87% 0 mm 0 W/m2
00:45 4 °C 2 °C 1008.4 hPa NW 5 km/h 10 km/h 87% 0 mm 0 W/m2
00:50 4 °C 2 °C 1008.77 hPa WNW 5 km/h 10 km/h 87% 0 mm 0 W/m2
00:55 4 °C 2 °C 1008.7 hPa WNW 5 km/h 10 km/h 87% 0 mm 0 W/m2
01:00 4 °C 2 °C 1008.91 hPa WNW 5 km/h 10 km/h 87% 0 mm 0 W/m2
01:05 4 °C 2 °C 1009.01 hPa WNW 5 km/h 10 km/h 87% 0 mm 0 W/m2
01:10 4 °C 2 °C 1009.28 hPa WNW 5 km/h 10 km/h 88% 0 mm 0 W/m2
01:15 4 °C 2 °C 1009.38 hPa W 8 km/h 13 km/h 88% 0 mm 0 W/m2
01:20 4 °C 2 °C 1009.41 hPa WNW 5 km/h 13 km/h 89% 0 mm 0 W/m2
01:25 4 °C 2 °C 1009.41 hPa NW 5 km/h 11 km/h 88% 0 mm 0 W/m2
01:30 4 °C 2 °C 1009.69 hPa NW 5 km/h 14 km/h 89% 0 mm 0 W/m2
01:35 4 °C 2 °C 1009.62 hPa NW 5 km/h 14 km/h 89% 0 mm 0 W/m2
01:40 4 °C 2 °C 1009.79 hPa WNW 5 km/h 13 km/h 89% 0 mm 0 W/m2
01:45 4 °C 2 °C 1009.89 hPa WNW 8 km/h 13 km/h 89% 0 mm 0 W/m2
01:50 4 °C 3 °C 1009.89 hPa W 8 km/h 13 km/h 90% 0 mm 0 W/m2
01:55 4 °C 3 °C 1009.79 hPa WNW 5 km/h 11 km/h 90% 0 mm 0 W/m2
02:00 4 °C 3 °C 1010.19 hPa NW 3 km/h 10 km/h 90% 0 mm 0 W/m2
02:05 4 °C 3 °C 1010.09 hPa W 5 km/h 11 km/h 91% 0 mm 0 W/m2
02:10 4 °C 3 °C 1010.4 hPa W 3 km/h 11 km/h 91% 0 mm 0 W/m2
02:15 4 °C 3 °C 1010.4 hPa WNW 10 km/h 11 km/h 91% 0 mm 0 W/m2
02:20 4 °C 3 °C 1010.5 hPa NW 5 km/h 11 km/h 90% 0 mm 0 W/m2
02:25 4 °C 3 °C 1010.7 hPa WNW 5 km/h 13 km/h 90% 0 mm 0 W/m2
02:30 4 °C 3 °C 1010.8 hPa WNW 5 km/h 13 km/h 91% 0 mm 0 W/m2
02:35 4 °C 3 °C 1010.8 hPa NW 5 km/h 10 km/h 91% 0 mm 0 W/m2
02:40 4 °C 3 °C 1011.01 hPa WNW 5 km/h 13 km/h 91% 0 mm 0 W/m2
02:45 4 °C 3 °C 1011.11 hPa WNW 3 km/h 13 km/h 90% 0 mm 0 W/m2
02:50 4 °C 3 °C 1011.21 hPa W 5 km/h 10 km/h 90% 0 mm 0 W/m2
02:55 4 °C 3 °C 1011.11 hPa W 5 km/h 10 km/h 91% 0 mm 0 W/m2
03:00 4 °C 3 °C 1011.11 hPa NW 3 km/h 13 km/h 91% 0 mm 0 W/m2
03:05 4 °C 3 °C 1011.11 hPa WNW 5 km/h 10 km/h 91% 0 mm 0 W/m2
03:10 4 °C 2 °C 1011.28 hPa W 2 km/h 10 km/h 91% 0 mm 0 W/m2
03:15 4 °C 2 °C 1011.21 hPa WNW 2 km/h 10 km/h 91% 0 mm 0 W/m2
03:20 4 °C 2 °C 1011.31 hPa NW 3 km/h 8 km/h 91% 0 mm 0 W/m2
03:25 4 °C 2 °C 1011.28 hPa WSW 5 km/h 10 km/h 91% 0 mm 0 W/m2
03:30 4 °C 2 °C 1011.21 hPa WSW 5 km/h 16 km/h 91% 0 mm 0 W/m2
03:35 4 °C 2 °C 1011.38 hPa WSW 5 km/h 13 km/h 91% 0 mm 0 W/m2
03:40 4 °C 2 °C 1011.51 hPa W 8 km/h 13 km/h 91% 0 mm 0 W/m2
03:45 4 °C 3 °C 1011.58 hPa WNW 5 km/h 16 km/h 92% 0 mm 0 W/m2
03:50 4 °C 3 °C 1011.62 hPa W 5 km/h 13 km/h 92% 0 mm 0 W/m2
03:55 4 °C 3 °C 1011.62 hPa W 8 km/h 14 km/h 92% 0 mm 0 W/m2
04:00 4 °C 3 °C 1011.62 hPa WNW 10 km/h 14 km/h 91% 0 mm 0 W/m2
04:05 4 °C 3 °C 1011.89 hPa NW 5 km/h 14 km/h 91% 0 mm 0 W/m2
04:10 4 °C 3 °C 1011.99 hPa W 8 km/h 13 km/h 91% 0 mm 0 W/m2
04:15 4 °C 3 °C 1011.89 hPa W 8 km/h 13 km/h 91% 0 mm 0 W/m2
04:20 4 °C 3 °C 1011.99 hPa W 3 km/h 13 km/h 91% 0 mm 0 W/m2
04:25 4 °C 3 °C 1012.29 hPa WNW 8 km/h 13 km/h 91% 0 mm 0 W/m2
04:30 4 °C 3 °C 1012.02 hPa WNW 5 km/h 13 km/h 91% 0 mm 0 W/m2
04:35 4 °C 3 °C 1012.19 hPa NW 8 km/h 10 km/h 91% 0 mm 0 W/m2
04:40 4 °C 3 °C 1012.19 hPa WNW 5 km/h 11 km/h 92% 0 mm 0 W/m2
04:45 4 °C 3 °C 1012.39 hPa WNW 5 km/h 11 km/h 92% 0 mm 0 W/m2
04:50 4 °C 3 °C 1012.39 hPa WNW 5 km/h 10 km/h 92% 0 mm 0 W/m2
04:55 4 °C 3 °C 1012.39 hPa WNW 8 km/h 11 km/h 92% 0 mm 0 W/m2
05:00 4 °C 3 °C 1012.5 hPa WNW 8 km/h 11 km/h 92% 0 mm 0 W/m2
05:05 4 °C 3 °C 1012.5 hPa WNW 5 km/h 10 km/h 92% 0 mm 0 W/m2
Garrymore Weather Station, Geashill, Tullamore, Offaly, Ireland
Compliments of Weather Underground - 2 mb